一网星座-0603星 (ONEWEB-0603 )

导读 | 豆包AI

ONEWEB-0603是英国一网公司(OneWeb)低轨宽带卫星星座中的一颗卫星,于2022年12月8日发射入轨。该卫星属于OneWeb第二代星座组网卫星,运行在近地极地轨道,工作在Ku波段,依托“渐进式俯仰”技术避免信号干扰,为全球提供高速卫星互联网接入服务,助力偏远地区联网、机载海事互联等场景,是OneWeb构建全球卫星通信网络的重要组成部分。

基本信息
目录编号:
54667
目录名称:
ONEWEB-0603
国际标识:
2022-166AB
轨道中心:
EARTH
卫星名称:
一网星座-0603星
卫星全名:
一网星座-0603星 (ONEWEB-0603 )
卫星状态:
在轨 (已飞行1192 天)
发射日期:
2022-12-08 UTC
国别 :
英国 (GB)
星等 :
--
轨道信息
数据来源 国际轨道数据 AOE轨道数据
星历时间 2026-03-14T06:18:58+0800
12小时前
查看轨道信息
2026-03-11T09:00:00+0800
3天前
查看轨道信息
半长轴 7555.897km 7555.896km
偏心率 0.0001503 0.0001406
轨道倾角 87.917° 87.918°
近地点辐角 94.254° 91.964°
升交点赤经 262.942° 263.520°
平近点角 265.877° 212.494°
近地点 1176.624km 1176.696km
远地点 1178.896km 1178.822km
周期 108.940分钟 108.940分钟
每日圈数 13.218244 13.218247
详细信息
平衡模式:
三轴稳定
覆盖范围:
全球
运营商:
一网卫星公司
运营商所在国:
英国
制造商(研发单位):
一网卫星公司
制造商所在国:
英国
使用方式:
暂无
卫星简介
OneWeb卫星网络由648颗重约125公斤的微型卫星组成,运行在1200公里的轨道上。 每颗卫星都能够提供至少每秒8千兆位的吞吐量,以使用其高吞吐量的Ku频段有效载荷为家庭和移动平台提供互联网接入。该卫星仍在工作。
2D轨道图
3D轨道图
轨道高度分析图
轨道倾角分析图
轨道综合分析图
查看轨道综合分析图